Location: Goettingen
(51.5300°N, 9.9433°E)
Time: 00:46:12
(UTC+02:00)

ISS - Pass Details

Date: 22 May 2017
Orbit: 402 x 408 km, 51.6° (Epoch: 30 May)

Event Time Altitude Azimuth Distance (km) Brightness Sun altitude
Rises 03:39:46 0° 280° (W) 2,332 -0.2 -11.6°
Reaches altitude 10° 03:41:51 10° 279° (W) 1,469 -1.2 -11.4°
Maximum altitude 03:45:08 73° 194° (SSW) 428 -3.9 -11.1°
Drops below altitude 10° 03:48:24 10° 110° (ESE) 1,461 -0.8 -10.8°
Sets 03:50:29 0° 108° (ESE) 2,318 0.3 -10.6°
